FlightSource - Aviation Photo Database

World Wide Airport Lookup


Search by ICAO
Or
Search by City

FlightSource.ca - Aviation Photo Database - Safdarjung Airport Information
Airport Identification
Name: Safdarjung Airport
ICAO: VIDD
IATA:
Airport Location
City:
Region: DL
Country: India
Continent: AS
Latitude: 28.5845
Longitude: 77.2058
Airport Information
Type: Medium Airport
Elevation: 705 Feet ASL
Flight Status: VIDD
More Info: VIDD
Airport Weather    
Metar: VIDD 260600Z 00000KT 2500 FU NSC 31/17 Q1016 NOSIG
TAF:


Advertisement